Columbus, NE

10:35 PM CDT on September 24, 2017 (GMT -0500)
Columbus Municipal

Weather History for KOLU - October, 2012

Change the Weather History Date:

Wednesday, October 31, 2012

  Actual Average Record
Temperature  
Mean Temperature 47 °F -  
Max Temperature 64 °F 56 °F 82 °F (1950)
Min Temperature 30 °F 35 °F 14 °F (1993)
Degree Days  
Heating Degree Days 18    
Moisture  
Dew Point 32 °F    
Average Humidity 61    
Maximum Humidity 86    
Minimum Humidity 37    
Precipitation  
Precipitation 0.00 in - - ()
Sea Level Pressure  
Sea Level Pressure 30.02 in    
Wind  
Wind Speed 2 mph (SE)    
Max Wind Speed 8 mph    
Max Gust Speed -    
Visibility 10 miles    
Events      
Averages and records for this station are not official NWS values.
T = Trace of Precipitation, MM = Missing Value Source: NWS Daily Summary

Daily Weather History Graph

Daily Weather History Graph

Search for Another Location

Airport or City:

Trip Planner

Search our weather history database for the weather conditions in past years. The results will help you decide how hot, cold, wet, or windy it might be!

Date:

Astronomy

Oct. 31, 2012 Rise Set
Actual Time 8:00 AM CDT 6:24 PM CDT
Civil Twilight 7:31 AM CDT 6:53 PM CDT
Nautical Twilight 6:58 AM CDT 7:26 PM CDT
Astronomical Twilight 6:26 AM CDT 7:58 PM CDT
Moon 7:35 PM CDT (10/31) 9:43 AM CDT (10/31)
Length of Visible Light 11h 21m
Length of Day
10h 24m
Full, 97% of the Moon is Illuminated
Oct 31
Full
Nov 6
Last Quarter
Nov 13
New
Nov 20
First Quarter
Nov 28
Full

Hourly Weather History & Observations

Time (CDT) Temp. Windchill Dew Point Humidity Pressure Visibility Wind Dir Wind Speed Gust Speed Precip Events Conditions
12:15 AM 35.6 °F - 26.6 °F 70% 30.05 in 10.0 mi Calm Calm - N/A   Scattered Clouds
12:35 AM 33.8 °F - 24.8 °F 70% 30.05 in 10.0 mi Calm Calm - N/A   Scattered Clouds
12:55 AM 35.6 °F - 26.6 °F 70% 30.04 in 10.0 mi Calm Calm - N/A   Mostly Cloudy
1:15 AM 35.6 °F - 26.6 °F 70% 30.05 in 10.0 mi Calm Calm - N/A   Mostly Cloudy
1:35 AM 35.6 °F - 26.6 °F 70% 30.06 in 10.0 mi Calm Calm - N/A   Partly Cloudy
1:55 AM 33.8 °F - 26.6 °F 75% 30.06 in 10.0 mi Calm Calm - N/A   Partly Cloudy
2:15 AM 33.8 °F 30.8 °F 26.6 °F 75% 30.06 in 10.0 mi West 3.5 mph - N/A   Partly Cloudy
2:35 AM 33.8 °F 30.8 °F 24.8 °F 70% 30.05 in 10.0 mi NE 3.5 mph - N/A   Clear
2:55 AM 30.2 °F - 24.8 °F 80% 30.05 in 10.0 mi Calm Calm - N/A   Clear
3:15 AM 32.0 °F - 24.8 °F 75% 30.06 in 10.0 mi Calm Calm - N/A   Partly Cloudy
3:35 AM 32.0 °F 28.7 °F 26.6 °F 80% 30.06 in 10.0 mi NNW 3.5 mph - N/A   Scattered Clouds
3:55 AM 33.8 °F - 26.6 °F 75% 30.06 in 10.0 mi Calm Calm - N/A   Overcast
4:35 AM 35.6 °F - 28.4 °F 75% 30.06 in 10.0 mi Calm Calm - N/A   Overcast
4:55 AM 35.6 °F - 28.4 °F 75% 30.05 in 10.0 mi Calm Calm - N/A   Overcast
5:15 AM 35.6 °F - 28.4 °F 75% 30.04 in 10.0 mi Calm Calm - N/A   Overcast
5:35 AM 35.6 °F - 28.4 °F 75% 30.04 in 10.0 mi Calm Calm - N/A   Mostly Cloudy
5:55 AM 35.6 °F - 28.4 °F 75% 30.04 in 10.0 mi Calm Calm - N/A   Clear
6:15 AM 33.8 °F - 26.6 °F 75% 30.03 in 10.0 mi Calm Calm - N/A   Clear
6:35 AM 30.2 °F 25.4 °F 24.8 °F 80% 30.03 in 10.0 mi East 4.6 mph - N/A   Clear
6:55 AM 30.2 °F - 24.8 °F 80% 30.03 in 10.0 mi Calm Calm - N/A   Clear
7:15 AM 32.0 °F - 26.6 °F 80% 30.03 in 10.0 mi Calm Calm - N/A   Clear
7:35 AM 30.2 °F 26.7 °F 26.6 °F 86% 30.04 in 10.0 mi ENE 3.5 mph - N/A   Clear
7:55 AM 30.2 °F 26.7 °F 26.6 °F 86% 30.04 in 10.0 mi East 3.5 mph - N/A   Clear
8:15 AM 30.2 °F 26.7 °F 24.8 °F 80% 30.04 in 10.0 mi East 3.5 mph - N/A   Clear
8:35 AM 32.0 °F 27.5 °F 26.6 °F 80% 30.05 in 9.0 mi East 4.6 mph - N/A   Clear
8:55 AM 35.6 °F - 28.4 °F 75% 30.05 in 10.0 mi Calm Calm - N/A   Clear
9:15 AM 37.4 °F 33.8 °F 30.2 °F 75% 30.06 in 10.0 mi East 4.6 mph - N/A   Clear
9:35 AM 37.4 °F - 30.2 °F 75% 30.06 in 10.0 mi Calm Calm - N/A   Clear
9:55 AM 41.0 °F 39.0 °F 30.2 °F 65% 30.06 in 10.0 mi SE 3.5 mph - N/A   Clear
10:15 AM 42.8 °F 41.1 °F 30.2 °F 61% 30.06 in 10.0 mi SSE 3.5 mph - N/A   Clear
10:35 AM 44.6 °F 41.4 °F 30.2 °F 57% 30.06 in 10.0 mi South 5.8 mph - N/A   Clear
10:55 AM 46.4 °F 42.9 °F 30.2 °F 53% 30.05 in 10.0 mi South 6.9 mph - N/A   Clear
11:15 AM 48.2 °F - 30.2 °F 50% 30.05 in 10.0 mi South 6.9 mph - N/A   Clear
11:35 AM 51.8 °F - 32.0 °F 47% 30.05 in 10.0 mi South 6.9 mph - N/A   Clear
11:55 AM 53.6 °F - 32.0 °F 44% 30.05 in 10.0 mi South 8.1 mph - N/A   Clear
12:15 PM 55.4 °F - 33.8 °F 44% 30.05 in 10.0 mi SSW 6.9 mph - N/A   Clear
12:35 PM 55.4 °F - 33.8 °F 44% 30.04 in 10.0 mi SW 4.6 mph - N/A   Clear
12:55 PM 57.2 °F - 35.6 °F 44% 30.04 in 10.0 mi SSW 6.9 mph - N/A   Clear
1:15 PM 59.0 °F - 35.6 °F 42% 30.02 in 10.0 mi WSW 6.9 mph - N/A   Clear
1:35 PM 60.8 °F - 35.6 °F 39% 30.02 in 10.0 mi SW 6.9 mph - N/A   Clear
1:55 PM 60.8 °F - 35.6 °F 39% 30.01 in 10.0 mi South 3.5 mph - N/A   Clear
2:15 PM 62.6 °F - 37.4 °F 39% 30.00 in 10.0 mi SSW 3.5 mph - N/A   Clear
2:35 PM 62.6 °F - 37.4 °F 39% 29.99 in 10.0 mi Calm Calm - N/A   Clear
2:55 PM 62.6 °F - 37.4 °F 39% 29.98 in 10.0 mi Calm Calm - N/A   Clear
3:15 PM 64.4 °F - 37.4 °F 37% 29.98 in 10.0 mi WSW 5.8 mph - N/A   Clear
3:35 PM 64.4 °F - 37.4 °F 37% 29.97 in 10.0 mi Calm Calm - N/A   Clear
3:55 PM 64.4 °F - 37.4 °F 37% 29.98 in 10.0 mi Calm Calm - N/A   Clear
4:15 PM 64.4 °F - 37.4 °F 37% 29.97 in 10.0 mi Calm Calm - N/A   Clear
4:35 PM 64.4 °F - 39.2 °F 40% 29.97 in 10.0 mi Calm Calm - N/A   Clear
4:55 PM 64.4 °F - 37.4 °F 37% 29.98 in 10.0 mi Calm Calm - N/A   Clear
5:15 PM 64.4 °F - 37.4 °F 37% 29.98 in 10.0 mi Calm Calm - N/A   Clear
5:35 PM 64.4 °F - 37.4 °F 37% 29.98 in 10.0 mi East 3.5 mph - N/A   Clear
5:55 PM 62.6 °F - 37.4 °F 39% 29.98 in 7.0 mi East 4.6 mph - N/A   Clear
6:15 PM 59.0 °F - 37.4 °F 45% 29.98 in 6.0 mi ESE 4.6 mph - N/A   Clear
6:35 PM 59.0 °F - 37.4 °F 45% 29.98 in 2.0 mi ESE 4.6 mph - N/A   Clear
6:55 PM 53.6 °F - 35.6 °F 51% 29.98 in 4.0 mi ESE 3.5 mph - N/A   Clear
7:15 PM 51.8 °F - 35.6 °F 54% 29.99 in 8.0 mi Calm Calm - N/A   Clear
7:35 PM 48.2 °F - 35.6 °F 62% 29.99 in 10.0 mi Calm Calm - N/A   Clear
7:55 PM 48.2 °F - 35.6 °F 62% 29.99 in 10.0 mi Calm Calm - N/A   Clear
8:15 PM 46.4 °F 45.2 °F 33.8 °F 62% 29.99 in 10.0 mi ENE 3.5 mph - N/A   Clear
8:35 PM 44.6 °F 43.1 °F 33.8 °F 66% 29.99 in 9.0 mi ENE 3.5 mph - N/A   Clear
8:55 PM 46.4 °F - 35.6 °F 66% 29.99 in 9.0 mi Calm Calm - N/A   Clear
9:15 PM 44.6 °F - 35.6 °F 71% 29.99 in 10.0 mi Calm Calm - N/A   Clear
9:35 PM 44.6 °F - 35.6 °F 71% 29.99 in 10.0 mi Calm Calm - N/A   Clear
9:55 PM 42.8 °F - 33.8 °F 70% 29.98 in 10.0 mi Calm Calm - N/A   Partly Cloudy
10:15 PM 44.6 °F - 35.6 °F 71% 29.99 in 10.0 mi Calm Calm - N/A   Mostly Cloudy
10:35 PM 46.4 °F - 37.4 °F 71% 29.98 in 10.0 mi Calm Calm - N/A   Overcast
10:55 PM 44.6 °F - 35.6 °F 71% 29.99 in 10.0 mi Calm Calm - N/A   Overcast
11:15 PM 44.6 °F - 35.6 °F 71% 29.98 in 10.0 mi Calm Calm - N/A   Partly Cloudy
11:35 PM 42.8 °F - 35.6 °F 76% 29.98 in 10.0 mi Calm Calm - N/A   Scattered Clouds